Date String (YYYY-MM-DD hh:mm:ss) UTC,Instrument flags,Ambient pressure (hPa),Sample flow (lpm),Bypass flow (lpm),Sample temperature (°C),Ambient temperature (°C),ASC tube jacket temperature (°C),LED temperature (°C),Box temperature (°C),Sample RH (%),Span deviation,Mass concentration (μg/m³),Mass concentration (μg/m³),Mass concentration (μg/m³)
DateTimeUTC,F1_M11,P_M11,Q1_M11,Q2_M11,T1_M11,T2_M11,T3_M11,T4_M11,T5_M11,U1_M11,ZSPAN_M11,X0_M11,X2_M11,X1_M11
2022-03-14 19:00:00,,0830.2,5.02,0.00,26.1,25.4,00.0,34.9,27.9,09.3,0000.0,0007.24,0002.53,0001.82
2022-03-14 19:01:00,,0830.3,4.99,0.00,26.1,25.5,00.0,35.0,28.0,09.6,0000.0,0005.70,0002.53,0001.82
2022-03-14 19:02:00,,0830.3,5.01,0.00,26.1,25.5,00.0,35.0,28.0,09.5,0000.0,0005.35,0002.55,0001.82
2022-03-14 19:03:00,,0830.2,4.99,0.00,26.1,25.5,00.0,35.0,28.0,09.0,0000.0,0004.61,0002.53,0001.82
2022-03-14 19:04:00,,0830.3,5.01,0.00,26.2,25.5,00.0,35.0,28.0,08.9,0000.0,0004.63,0002.57,0001.83
2022-03-14 19:05:00,,0830.3,5.01,0.00,26.2,25.5,00.0,35.0,28.0,08.9,0000.0,0005.31,0002.62,0001.83
2022-03-14 19:06:00,,0830.3,4.99,0.00,26.2,25.5,00.0,35.0,28.0,08.9,0000.0,0006.19,0002.66,0001.84
2022-03-14 19:07:00,,0830.2,5.01,0.00,26.2,25.5,00.0,35.0,28.0,09.1,0000.0,0006.22,0002.63,0001.84
2022-03-14 19:08:00,,0830.2,4.99,0.00,26.2,25.5,00.0,35.0,28.0,09.3,0000.0,0006.15,0002.60,0001.84
2022-03-14 19:09:00,,0830.2,5.01,0.00,26.2,25.6,00.0,35.0,28.1,09.1,0000.0,0006.24,0002.58,0001.83
2022-03-14 19:10:00,,0830.2,4.99,0.00,26.2,25.6,00.0,35.1,28.1,08.8,0000.0,0007.30,0002.59,0001.83
2022-03-14 19:11:00,,0830.2,5.02,0.00,26.2,25.6,00.0,35.1,28.1,08.8,0000.0,0007.85,0002.60,0001.83
2022-03-14 19:12:00,,0830.1,4.99,0.00,26.3,25.6,00.0,35.1,28.1,08.8,0000.0,0008.17,0002.62,0001.83
2022-03-14 19:13:00,,0830.2,5.00,0.00,26.3,25.6,00.0,35.1,28.1,08.8,0000.0,0008.04,0002.59,0001.83
2022-03-14 19:14:00,,0830.1,5.00,0.00,26.3,25.6,00.0,35.1,28.2,09.0,0000.0,0008.07,0002.63,0001.84
2022-03-14 19:15:00,,0830.1,5.01,0.00,26.3,25.6,00.0,35.1,28.2,08.8,0000.0,0008.82,0002.60,0001.84
2022-03-14 19:16:00,,0830.1,4.99,0.00,26.3,25.6,00.0,35.1,28.2,09.0,0000.0,0008.70,0002.61,0001.84
2022-03-14 19:17:00,,0830.1,5.01,0.00,26.3,25.6,00.0,35.1,28.1,09.1,0000.0,0008.21,0002.61,0001.84
2022-03-14 19:18:00,,0830.1,4.99,0.00,26.3,25.6,00.0,35.1,28.1,09.0,0000.0,0008.03,0002.65,0001.84
2022-03-14 19:19:00,,0830.1,5.01,0.00,26.3,25.6,00.0,35.2,28.1,08.6,0000.0,0008.18,0002.64,0001.82
2022-03-14 19:20:00,,0830.1,4.99,0.00,26.3,25.6,00.0,35.2,28.1,08.5,0000.0,0008.81,0002.64,0001.80
2022-03-14 19:21:00,,0830.1,5.01,0.00,26.3,25.6,00.0,35.2,28.1,08.7,0000.0,0008.20,0002.61,0001.78
2022-03-14 19:22:00,,0830.1,4.99,0.00,26.3,25.6,00.0,35.2,28.1,08.3,0000.0,0007.67,0002.58,0001.74
2022-03-14 19:23:00,,0830.1,5.01,0.00,26.3,25.7,00.0,35.2,28.1,08.4,0000.0,0007.21,0002.48,0001.71
2022-03-14 19:24:00,,0830.1,4.99,0.00,26.4,25.7,00.0,35.2,28.2,08.7,0000.0,0007.41,0002.44,0001.68
2022-03-14 19:25:00,,0830.1,5.00,0.00,26.4,25.7,00.0,35.2,28.2,08.7,0000.0,0007.58,0002.42,0001.65
2022-03-14 19:26:00,,0830.1,5.01,0.00,26.4,25.8,00.0,35.2,28.2,09.0,0000.0,0006.59,0002.37,0001.62
2022-03-14 19:27:00,,0830.2,4.99,0.00,26.4,25.8,00.0,35.2,28.3,08.7,0000.0,0005.92,0002.34,0001.60
2022-03-14 19:28:00,,0830.2,5.02,0.00,26.4,25.8,00.0,35.3,28.3,08.5,0000.0,0005.83,0002.32,0001.60
2022-03-14 19:29:00,,0830.2,4.99,0.00,26.5,25.8,00.0,35.3,28.3,08.4,0000.0,0005.72,0002.27,0001.58
2022-03-14 19:30:00,,0830.2,5.00,0.00,26.5,25.8,00.0,35.3,28.3,08.6,0000.0,0005.70,0002.27,0001.57
2022-03-14 19:31:00,,0830.2,5.01,0.00,26.5,25.8,00.0,35.3,28.3,08.5,0000.0,0004.46,0002.32,0001.59
2022-03-14 19:32:00,,0830.2,5.00,0.00,26.5,25.8,00.0,35.3,28.3,08.4,0000.0,0004.58,0002.30,0001.57
2022-03-14 19:33:00,,0830.2,5.00,0.00,26.5,25.8,00.0,35.3,28.3,08.4,0000.0,0004.57,0002.30,0001.59
2022-03-14 19:34:00,,0830.1,5.00,0.00,26.5,25.8,00.0,35.3,28.3,08.6,0000.0,0004.75,0002.35,0001.60
2022-03-14 19:35:00,,0830.1,5.01,0.00,26.5,25.8,00.0,35.3,28.3,08.4,0000.0,0004.78,0002.37,0001.61
2022-03-14 19:36:00,,0830.1,4.98,0.00,26.5,25.9,00.0,35.4,28.3,08.4,0000.0,0004.50,0002.38,0001.63
2022-03-14 19:37:00,,0830.2,5.01,0.00,26.6,25.9,00.0,35.4,28.4,08.8,0000.0,0004.55,0002.41,0001.64
2022-03-14 19:38:00,,0830.1,4.99,0.00,26.6,25.9,00.0,35.4,28.4,09.0,0000.0,0004.50,0002.38,0001.65
2022-03-14 19:39:00,,0830.0,5.00,0.00,26.6,25.9,00.0,35.4,28.4,08.3,0000.0,0004.60,0002.35,0001.63
2022-03-14 19:40:00,,0830.0,5.01,0.00,26.6,26.0,00.0,35.4,28.5,08.4,0000.0,0004.65,0002.37,0001.62
2022-03-14 19:41:00,,0830.1,4.98,0.00,26.6,26.0,00.0,35.4,28.5,08.8,0000.0,0006.00,0002.37,0001.62
2022-03-14 19:42:00,,0830.1,5.01,0.00,26.6,26.0,00.0,35.5,28.5,08.7,0000.0,0006.43,0002.30,0001.61
2022-03-14 19:43:00,,0830.1,5.00,0.00,26.6,26.0,00.0,35.5,28.5,08.5,0000.0,0006.94,0002.24,0001.62
2022-03-14 19:44:00,,0830.1,5.00,0.00,26.6,25.9,00.0,35.5,28.5,08.4,0000.0,0008.39,0002.27,0001.64
2022-03-14 19:45:00,,0830.0,5.00,0.00,26.6,25.9,00.0,35.5,28.5,08.3,0000.0,0009.01,0002.30,0001.65
2022-03-14 19:46:00,,0830.1,5.01,0.00,26.7,26.0,00.0,35.5,28.4,08.4,0000.0,0009.11,0002.37,0001.67
2022-03-14 19:47:00,,0830.1,5.00,0.00,26.7,26.0,00.0,35.5,28.5,08.6,0000.0,0009.04,0002.40,0001.67
2022-03-14 19:48:00,,0830.0,4.99,0.00,26.7,26.0,00.0,35.5,28.5,08.4,0000.0,0009.42,0002.36,0001.67
2022-03-14 19:49:00,,0830.0,5.00,0.00,26.7,26.0,00.0,35.5,28.6,08.5,0000.0,0009.99,0002.34,0001.67
2022-03-14 19:50:00,,0829.9,5.00,0.00,26.7,26.1,00.0,35.5,28.6,08.1,0000.0,0010.62,0002.33,0001.66
2022-03-14 19:51:00,,0829.9,5.01,0.00,26.7,26.1,00.0,35.6,28.6,08.0,0000.0,0011.02,0002.32,0001.63
2022-03-14 19:52:00,,0829.9,5.00,0.00,26.7,26.1,00.0,35.6,28.6,07.8,0000.0,0010.69,0002.31,0001.61
2022-03-14 19:53:00,,0829.8,5.00,0.00,26.8,26.1,00.0,35.6,28.6,07.9,0000.0,0009.97,0002.29,0001.57
2022-03-14 19:54:00,,0829.8,4.98,0.00,26.8,26.1,00.0,35.6,28.6,07.8,0000.0,0009.89,0002.31,0001.53
2022-03-14 19:55:00,,0829.8,5.00,0.00,26.8,26.2,00.0,35.6,28.6,08.0,0000.0,0009.16,0002.26,0001.48
2022-03-14 19:56:00,,0829.8,5.01,0.00,26.8,26.2,00.0,35.6,28.6,07.8,0000.0,0008.58,0002.18,0001.43
2022-03-14 19:57:00,,0829.8,5.01,0.00,26.8,26.2,00.0,35.6,28.7,08.0,0000.0,0008.32,0002.08,0001.39
2022-03-14 19:58:00,,0829.7,5.00,0.00,26.9,26.2,00.0,35.6,28.7,07.9,0000.0,0008.26,0002.00,0001.35
2022-03-14 19:59:00,,0829.8,5.01,0.00,26.9,26.2,00.0,35.7,28.7,07.9,0000.0,0008.04,0001.97,0001.33
